Scottsbluff, NE

11:06 PM MST on December 17, 2017 (GMT -0700)
Heilig

Weather History for KBFF - November, 2012

Change the Weather History Date:

Friday, November 2, 2012

  Actual Average Record
Temperature  
Mean Temperature 48 °F 42 °F  
Max Temperature 63 °F 57 °F 79 °F (1931)
Min Temperature 33 °F 27 °F -4 °F (1991)
Degree Days  
Heating Degree Days 17 23  
Month to date heating degree days 32 45  
Since 1 July heating degree days 631 736  
Cooling Degree Days 0 0  
Month to date cooling degree days 0 0  
Year to date cooling degree days 1208 724  
Moisture  
Dew Point 30 °F    
Average Humidity 50    
Maximum Humidity 75    
Minimum Humidity 25    
Precipitation  
Precipitation 0.00 in 0.03 in 0.78 in (1938)
Month to date precipitation 0.00 0.06  
Year to date precipitation 6.51 14.68  
Snow  
Snow 0.00 in 0.10 in 9.00 in (2013)
Month to date snowfall 0.0 0.3  
Since 1 July snowfall 6.5 3.5  
Snow Depth 0.00 in    
Sea Level Pressure  
Sea Level Pressure 29.99 in    
Wind  
Wind Speed 10 mph (NW)    
Max Wind Speed 22 mph    
Max Gust Speed 32 mph    
Visibility 10 miles    
Events      
T = Trace of Precipitation, MM = Missing Value Source: NWS Daily Summary

Daily Weather History Graph

Daily Weather History Graph

Search for Another Location

Airport or City:

Trip Planner

Search our weather history database for the weather conditions in past years. The results will help you decide how hot, cold, wet, or windy it might be!

Date:

Astronomy

Nov. 02, 2012 Rise Set
Actual Time 7:28 AM MDT 5:46 PM MDT
Civil Twilight 6:59 AM MDT 6:15 PM MDT
Nautical Twilight 6:26 AM MDT 6:48 PM MDT
Astronomical Twilight 5:54 AM MDT 7:21 PM MDT
Moon 8:34 PM MDT (11/2) 10:52 AM MDT (11/2)
Length of Visible Light 11h 16m
Length of Day
10h 17m
Waning Gibbous, 87% of the Moon is Illuminated
Nov 2
Waning Gibbous
Nov 6
Last Quarter
Nov 13
New
Nov 20
First Quarter
Nov 28
Full

Hourly Weather History & Observations

Time (MDT) Temp. Windchill Dew Point Humidity Pressure Visibility Wind Dir Wind Speed Gust Speed Precip Events Conditions
12:53 AM 52.0 °F - 32.0 °F 47% 29.82 in 10.0 mi Calm Calm - N/A   Clear
1:53 AM 48.0 °F - 33.1 °F 56% 29.81 in 10.0 mi North 6.9 mph - N/A   Clear
2:53 AM 46.0 °F 42.5 °F 30.9 °F 56% 29.81 in 10.0 mi NW 6.9 mph - N/A   Clear
3:53 AM 53.1 °F - 28.0 °F 38% 29.81 in 10.0 mi WNW 13.8 mph - N/A   Clear
4:53 AM 46.9 °F - 28.9 °F 50% 29.86 in 10.0 mi NW 13.8 mph - N/A   Clear
5:53 AM 45.0 °F 39.7 °F 30.0 °F 56% 29.90 in 10.0 mi NW 10.4 mph - N/A   Clear
6:53 AM 45.0 °F 38.9 °F 30.0 °F 56% 29.95 in 10.0 mi WNW 12.7 mph - N/A   Clear
7:53 AM 45.0 °F 39.3 °F 30.9 °F 58% 30.00 in 10.0 mi WNW 11.5 mph - N/A   Clear
8:53 AM 46.0 °F 38.8 °F 34.0 °F 63% 30.02 in 10.0 mi West 18.4 mph - N/A   Clear
9:53 AM 48.9 °F - 37.0 °F 64% 30.03 in 10.0 mi WNW 13.8 mph - N/A   Clear
10:53 AM 52.0 °F - 36.0 °F 54% 30.03 in 10.0 mi NW 15.0 mph - N/A   Clear
11:53 AM 57.9 °F - 36.0 °F 44% 30.00 in 10.0 mi WNW 13.8 mph - N/A   Clear
12:53 PM 62.1 °F - 30.0 °F 30% 29.96 in 10.0 mi NW 20.7 mph 32.2 mph N/A   Clear
1:53 PM 63.0 °F - 28.0 °F 27% 29.97 in 10.0 mi NNW 16.1 mph 27.6 mph N/A   Clear
2:53 PM 62.1 °F - 27.0 °F 26% 29.98 in 10.0 mi NW 13.8 mph - N/A   Clear
3:53 PM 61.0 °F - 27.0 °F 27% 29.97 in 10.0 mi NNW 10.4 mph - N/A   Clear
4:53 PM 59.0 °F - 28.0 °F 31% 30.00 in 10.0 mi North 10.4 mph - N/A   Clear
5:53 PM 51.1 °F - 28.0 °F 41% 30.04 in 10.0 mi North 6.9 mph - N/A   Clear
6:53 PM 46.9 °F - 28.0 °F 48% 30.08 in 10.0 mi NNE 5.8 mph - N/A   Clear
7:53 PM 42.1 °F - 28.0 °F 58% 30.10 in 10.0 mi Calm Calm - N/A   Clear
8:53 PM 39.9 °F 35.8 °F 28.0 °F 63% 30.12 in 10.0 mi North 5.8 mph - N/A   Clear
9:53 PM 39.0 °F 36.8 °F 28.9 °F 67% 30.15 in 10.0 mi WNW 3.5 mph - N/A   Clear
10:53 PM 36.0 °F 33.3 °F 28.0 °F 73% 30.17 in 10.0 mi NW 3.5 mph - N/A   Clear
11:53 PM 34.0 °F 28.0 °F 27.0 °F 75% 30.17 in 10.0 mi NNW 6.9 mph - N/A   Clear